Location: Kellogg
(38.0159°N, 90.0546°W)
Time: 19:29:40
(UTC+00:00)

Tiros 1 despin weight - Pass Details

Date: 18 September 2024
Orbit: 572 x 614 km, 48.2° (Epoch: 08 October)

Event Time Altitude Azimuth Distance (km) Brightness Sun altitude
Reaches altitude 10° 10:36:32 10° 307° (NW) 1,984 ? -14.2°
Exits shadow 10:36:32 10° 307° (NW) 1,983 ? -14.2°
Maximum altitude 10:40:08 22° 359° (N) 1,350 ? -13.5°
Drops below altitude 10° 10:43:45 10° 51° (NE) 1,989 ? -12.8°
Sets 10:46:30 0° 66° (ENE) 2,894 ? -12.3°
